Location: Unspecified
(0.0000°N, 0.0000°E)
Time: 17:08:58
(UTC+00:00)

A-11 Canister half - All Passes

Search period start: 28 August 2015 00:00
Search period end: 07 September 2015 00:00
Orbit: 1517 x 1683 km, 47.2° (Epoch: 26 August)

Date Brightness Start Highest point End Pass type
(mag) Time Alt. Az. Time Alt. Az. Time Alt. Az.
28 Aug - 01:30:48 10° SSW 01:39:04 38° SE 01:47:30 10° ENE visible
28 Aug - 03:35:11 10° WSW 03:43:53 44° NW 03:52:36 10° NNE visible
28 Aug - 12:19:11 10° N 12:24:29 16° NE 12:30:31 10° E daylight
28 Aug - 14:20:01 10° NW 14:30:11 82° NE 14:40:18 10° SE daylight
28 Aug - 16:28:10 10° W 16:35:34 21° SW 16:42:21 10° S daylight
29 Aug - 01:08:07 10° SSW 01:16:09 34° SE 01:24:23 10° ENE visible
29 Aug - 03:12:08 10° WSW 03:20:59 49° NW 03:29:50 10° NNE visible
29 Aug - 11:56:54 10° NNE 12:01:26 14° NE 12:06:48 10° ENE daylight
29 Aug - 13:57:08 10° NW 14:07:15 76° NE 14:17:22 10° SE daylight
29 Aug - 16:04:46 10° W 16:12:34 24° SW 16:19:49 10° S daylight
30 Aug - 00:45:27 10° S 00:53:14 31° SE 01:01:14 10° ENE visible
30 Aug - 02:49:08 10° SW 02:58:05 53° NW 03:07:04 10° NNE visible
30 Aug - 11:34:48 10° NNE 11:38:23 13° NE 11:42:53 10° ENE daylight
30 Aug - 13:34:16 10° NNW 13:44:19 70° NE 13:54:24 10° SE daylight
30 Aug - 15:41:25 10° W 15:49:34 26° SW 15:57:15 10° S daylight
31 Aug - 00:22:49 10° S 00:30:19 28° SE 00:38:02 10° ENE night (unlit)
31 Aug - 02:26:09 10° SW 02:35:13 58° NW 02:44:16 10° NNE visible
31 Aug - 11:13:02 10° NNE 11:15:20 11° NE 11:18:36 10° ENE daylight
31 Aug - 13:11:24 10° NNW 13:21:23 65° NE 13:31:25 10° SE daylight
31 Aug - 15:18:08 10° WNW 15:26:35 28° SW 15:34:38 10° S daylight
01 Sep - 00:00:12 10° S 00:07:23 26° SE 00:14:50 10° E night (unlit)
01 Sep - 02:03:11 10° SW 02:12:20 63° NW 02:21:28 10° NNE visible
01 Sep - 12:48:36 10° NNW 12:58:27 60° NE 13:08:25 10° SE daylight
01 Sep - 14:54:52 10° WNW 15:03:36 31° SW 15:11:59 10° S daylight
01 Sep - 23:37:37 10° S 23:44:25 24° SE 23:51:34 10° E night (unlit)
02 Sep - 01:40:14 10° SW 01:49:27 69° NW 01:58:39 10° NNE visible
02 Sep - 03:52:16 10° WNW 03:55:09 11° NW 03:57:13 10° NNW visible
02 Sep - 12:25:47 10° NNW 12:35:31 55° NE 12:45:23 10° SE daylight
02 Sep - 14:31:40 10° WNW 14:40:38 34° SW 14:49:19 10° SSE daylight
02 Sep - 23:15:04 10° S 23:21:29 21° SE 23:28:15 10° E night (unlit)
03 Sep - 01:17:18 10° SW 01:26:35 75° NW 01:35:49 10° NE visible
03 Sep - 03:28:07 10° WNW 03:32:09 13° NW 03:35:27 10° NNW visible
03 Sep - 12:02:59 10° NNW 12:12:35 50° NE 12:22:20 10° ESE daylight
03 Sep - 14:08:29 10° WNW 14:17:39 37° SW 14:26:37 10° SSE daylight
03 Sep - 22:52:34 10° S 22:58:30 19° SE 23:04:53 10° E night (unlit)
04 Sep - 00:54:23 10° SW 01:03:42 81° NW 01:12:58 10° NE visible
04 Sep - 03:04:17 10° WNW 03:09:09 14° NW 03:13:19 10° NNW visible
04 Sep - 11:40:13 10° NNW 11:49:37 46° NE 11:59:15 10° ESE daylight
04 Sep - 13:45:21 10° WNW 13:54:42 40° SW 14:03:53 10° SSE daylight
04 Sep - 22:30:07 10° S 22:35:32 17° SE 22:41:27 10° E night (unlit)
05 Sep - 00:31:29 10° SW 00:40:50 88° NW 00:50:06 10° NE night (unlit)
05 Sep - 02:40:40 10° W 02:46:09 16° NW 02:51:03 10° N visible
05 Sep - 11:17:28 10° NNW 11:26:41 42° NE 11:36:09 10° ESE daylight
05 Sep - 13:22:15 10° WNW 13:31:45 44° SW 13:41:08 10° SSE daylight
05 Sep - 22:07:45 10° SSE 22:12:32 16° SE 22:17:55 10° E night (unlit)
06 Sep - 00:08:37 10° SW 00:17:58 86° SE 00:27:14 10° NE night (unlit)
06 Sep - 02:17:09 10° W 02:23:11 18° NW 02:28:40 10° N visible
06 Sep - 10:54:44 10° NNW 11:03:43 39° NE 11:13:01 10° ESE daylight
06 Sep - 12:59:09 10° WNW 13:08:48 48° SW 13:18:22 10° SSE daylight
06 Sep - 21:45:30 10° SSE 21:49:32 14° SE 21:54:16 10° ESE night (unlit)
